STARLINK-4193 (52875 NORAD) Tracking and Keplerian Element Data

This shows tracking and keplerian element data for the satellite.

Feedback or suggestion? Click here.




ElementValue
Catalog52875
NameSTARLINK-4193
Epoch Orbit1642
Epoch Day270.25001157
Epoch Year2022
RAAN267.9608
Inclination53.216
Eccentricity0.0001389
Argument of Perigee49.7486
Mean Anonmoly238.3821
Mean Motion15.09187616
Decay Rate-0.00453657
L11 52875U 22062AX 22270.25001157 -.00453657 00000+0 -30054-1 0 9997
L22 52875 53.2160 267.9608 0001389 49.7486 238.3821 15.09187616 16427

Live tracking and technical data element details for STARLINK-4193 (NORAD 52875). STARLINK-4193 can be tracked NOW for your location showing map with azimuth and elevation plus other details from your city location.

Track the satellite on the map from your city or location and see movement details for azimuth, elevation, latitude, longitude, range, height, and movement on the map or in text.







IsCatalogInMostPopularTable: catalog: 52875, numindb: 6
Update: records affected: 1



GetName: 52875 STARLINK-4193

Hit Count: updated at: Thu, 06 Oct 2022 03:15:10 GMT